Location: Igri�s
(42.2144°N, 0.4320°W)
Time: 10:20:59
(UTC+00:00)

BREEZE-M DEB (TANK) - Pass Details

Date: 13 August 2020
Orbit: 433 x 13232 km, 46.0° (Epoch: 18 September)

Event Time Altitude Azimuth Distance (km) Brightness Sun altitude
Rises 23:00:08 0° 282° (WNW) 8,223 9.1 -31.5°
Reaches altitude 10° 23:07:46 10° 285° (WNW) 5,367 8.1 -31.9°
Enters shadow 23:18:39 69° 342° (NNW) 1,036 4.1 -32.4°
